Time,TemperatureF,DewpointF,PressureIn,WindDirection,WindDirectionDegrees,WindSpeedMPH,WindSpeedGustMPH,Humidity,HourlyPrecipIn,Conditions,Clouds,dailyrainin,SoftwareType,DateUTC
2013-02-27 00:00:00,33.6,27.2,0.00,SE,135,2.5,-999.0,77,-99.99,,,-99.99,,2013-02-27 05:00:00,
2013-02-27 00:01:00,33.6,27.2,0.00,ESE,112,1.6,-999.0,77,-99.99,,,-99.99,,2013-02-27 05:01:00,
2013-02-27 00:06:00,33.6,26.9,0.00,ESE,112,1.6,-999.0,76,-99.99,,,-99.99,,2013-02-27 05:06:00,
2013-02-27 00:07:00,33.6,26.9,0.00,ESE,112,0.0,-999.0,76,-99.99,,,-99.99,,2013-02-27 05:07:00,
2013-02-27 00:08:00,33.6,26.9,0.00,ESE,112,0.0,-999.0,76,-99.99,,,-99.99,,2013-02-27 05:08:00,
2013-02-27 00:13:00,33.6,27.2,0.00,NE,45,0.0,-999.0,77,-99.99,,,-99.99,,2013-02-27 05:13:00,
2013-02-27 00:18:00,33.6,27.2,0.00,NNW,337,2.5,-999.0,77,-99.99,,,-99.99,,2013-02-27 05:18:00,
2013-02-27 00:23:00,33.6,27.2,0.00,NNE,22,0.0,-999.0,77,-99.99,,,-99.99,,2013-02-27 05:23:00,
2013-02-27 00:28:00,33.6,27.2,0.00,SE,135,2.0,-999.0,77,-99.99,,,-99.99,,2013-02-27 05:28:00,
2013-02-27 00:33:00,33.6,27.2,0.00,SSE,157,2.0,-999.0,77,-99.99,,,-99.99,,2013-02-27 05:33:00,
2013-02-27 00:38:00,33.6,27.2,0.00,ESE,112,0.0,-999.0,77,-99.99,,,-99.99,,2013-02-27 05:38:00,
2013-02-27 00:43:00,33.4,27.0,0.00,ENE,67,0.0,-999.0,77,-99.99,,,-99.99,,2013-02-27 05:43:00,
2013-02-27 00:48:00,33.4,27.3,0.00,ENE,67,0.0,-999.0,78,-99.99,,,-99.99,,2013-02-27 05:48:00,
2013-02-27 00:53:00,33.4,27.3,0.00,East,90,0.0,-999.0,78,-99.99,,,-99.99,,2013-02-27 05:53:00,
2013-02-27 00:59:00,33.4,27.3,0.00,East,90,0.0,-999.0,78,-99.99,,,-99.99,,2013-02-27 05:59:00,
2013-02-27 01:04:00,33.4,27.6,0.00,East,90,0.0,-999.0,79,-99.99,,,-99.99,,2013-02-27 06:04:00,
2013-02-27 01:09:00,33.6,27.8,0.00,ESE,112,3.1,-999.0,79,-99.99,,,-99.99,,2013-02-27 06:09:00,
2013-02-27 01:15:00,33.6,28.1,0.00,SE,135,2.7,-999.0,80,-99.99,,,-99.99,,2013-02-27 06:15:00,
2013-02-27 01:20:00,33.4,27.9,0.00,NE,45,0.0,-999.0,80,-99.99,,,-99.99,,2013-02-27 06:20:00,
2013-02-27 01:25:00,33.4,28.2,0.00,NE,45,0.0,-999.0,81,-99.99,,,-99.99,,2013-02-27 06:25:00,
2013-02-27 01:30:00,33.4,28.2,0.00,NE,45,0.0,-999.0,81,-99.99,,,-99.99,,2013-02-27 06:30:00,
2013-02-27 01:35:00,33.4,28.2,0.00,NE,45,0.0,-999.0,81,-99.99,,,-99.99,,2013-02-27 06:35:00,
2013-02-27 01:40:00,33.4,28.5,0.00,NE,45,0.0,-999.0,82,-99.99,,,-99.99,,2013-02-27 06:40:00,
2013-02-27 01:46:00,33.4,28.5,0.00,NE,45,0.0,-999.0,82,-99.99,,,-99.99,,2013-02-27 06:46:00,
2013-02-27 01:51:00,33.4,28.5,0.00,NE,45,0.0,-999.0,82,-99.99,,,-99.99,,2013-02-27 06:51:00,
2013-02-27 01:56:00,33.4,28.2,0.00,NE,45,1.6,-999.0,81,-99.99,,,-99.99,,2013-02-27 06:56:00,
2013-02-27 02:02:00,33.4,28.5,0.00,ESE,112,0.0,-999.0,82,-99.99,,,-99.99,,2013-02-27 07:02:00,
2013-02-27 02:07:00,33.4,28.5,0.00,ESE,112,0.0,-999.0,82,-99.99,,,-99.99,,2013-02-27 07:07:00,
2013-02-27 02:12:00,33.4,28.8,0.00,ESE,112,0.9,-999.0,83,-99.99,,,-99.99,,2013-02-27 07:12:00,
2013-02-27 02:18:00,33.4,29.1,0.00,ESE,112,1.3,-999.0,84,-99.99,,,-99.99,,2013-02-27 07:18:00,
2013-02-27 02:23:00,33.4,29.1,0.00,ESE,112,0.0,-999.0,84,-99.99,,,-99.99,,2013-02-27 07:23:00,
2013-02-27 02:28:00,33.4,29.4,0.00,ESE,112,1.1,-999.0,85,-99.99,,,-99.99,,2013-02-27 07:28:00,
2013-02-27 02:33:00,33.4,29.4,0.00,ENE,67,2.7,-999.0,85,-99.99,,,-99.99,,2013-02-27 07:33:00,
2013-02-27 02:38:00,33.6,29.6,0.00,SSE,157,2.5,-999.0,85,-99.99,,,-99.99,,2013-02-27 07:38:00,
2013-02-27 02:43:00,33.6,29.6,0.00,SE,135,2.7,-999.0,85,-99.99,,,-99.99,,2013-02-27 07:43:00,
2013-02-27 02:48:00,33.6,29.6,0.00,East,90,0.0,-999.0,85,-99.99,,,-99.99,,2013-02-27 07:48:00,
2013-02-27 02:53:00,33.6,29.9,0.00,SE,135,2.5,-999.0,86,-99.99,,,-99.99,,2013-02-27 07:53:00,
2013-02-27 02:58:00,33.6,29.9,0.00,NW,315,1.6,-999.0,86,-99.99,,,-99.99,,2013-02-27 07:58:00,
2013-02-27 03:03:00,33.8,30.1,0.00,ESE,112,1.3,-999.0,86,-99.99,,,-99.99,,2013-02-27 08:03:00,
2013-02-27 03:08:00,33.8,30.1,0.00,ESE,112,0.0,-999.0,86,-99.99,,,-99.99,,2013-02-27 08:08:00,
2013-02-27 03:13:00,33.8,30.1,0.00,SSE,157,2.5,-999.0,86,-99.99,,,-99.99,,2013-02-27 08:13:00,
2013-02-27 03:18:00,33.8,30.1,0.00,SSE,157,2.5,-999.0,86,-99.99,,,-99.99,,2013-02-27 08:18:00,
2013-02-27 03:23:00,33.8,30.4,0.00,SSE,157,0.0,-999.0,87,-99.99,,,-99.99,,2013-02-27 08:23:00,
2013-02-27 03:28:00,34.0,30.8,0.00,ESE,112,3.4,-999.0,88,-99.99,,,-99.99,,2013-02-27 08:28:00,
2013-02-27 03:34:00,34.0,30.8,0.00,SSE,157,1.3,-999.0,88,-99.99,,,-99.99,,2013-02-27 08:34:00,
2013-02-27 03:39:00,34.0,30.8,0.00,SE,135,1.6,-999.0,88,-99.99,,,-99.99,,2013-02-27 08:39:00,
2013-02-27 03:44:00,34.0,31.1,0.00,SSE,157,3.4,-999.0,89,-99.99,,,-99.99,,2013-02-27 08:44:00,
2013-02-27 03:49:00,34.0,31.1,0.00,SSE,157,2.7,-999.0,89,-99.99,,,-99.99,,2013-02-27 08:49:00,
2013-02-27 03:54:00,34.2,31.3,0.00,SSE,157,3.6,-999.0,89,-99.99,,,-99.99,,2013-02-27 08:54:00,
2013-02-27 03:59:00,34.3,31.7,0.00,ESE,112,1.6,-999.0,90,-99.99,,,-99.99,,2013-02-27 08:59:00,
2013-02-27 04:05:00,34.3,32.0,0.00,ESE,112,3.4,-999.0,91,-99.99,,,-99.99,,2013-02-27 09:05:00,
2013-02-27 04:10:00,34.5,32.2,0.00,ESE,112,0.0,-999.0,91,-99.99,,,-99.99,,2013-02-27 09:10:00,
2013-02-27 04:15:00,34.5,32.4,0.00,ESE,112,0.0,-999.0,92,-99.99,,,-99.99,,2013-02-27 09:15:00,
2013-02-27 04:21:00,34.5,32.4,0.00,ESE,112,0.0,-999.0,92,-99.99,,,-99.99,,2013-02-27 09:21:00,
2013-02-27 04:26:00,34.5,32.4,0.00,ESE,112,0.0,-999.0,92,-99.99,,,-99.99,,2013-02-27 09:26:00,
2013-02-27 04:31:00,34.5,32.2,0.00,ESE,112,0.0,-999.0,91,-99.99,,,-99.99,,2013-02-27 09:31:00,
2013-02-27 04:36:00,34.5,32.2,0.00,SE,135,0.0,-999.0,91,-99.99,,,-99.99,,2013-02-27 09:36:00,
2013-02-27 04:41:00,34.5,32.2,0.00,SE,135,0.0,-999.0,91,-99.99,,,-99.99,,2013-02-27 09:41:00,
2013-02-27 04:46:00,34.5,32.2,0.00,ESE,112,0.0,-999.0,91,-99.99,,,-99.99,,2013-02-27 09:46:00,
2013-02-27 04:51:00,34.5,32.2,0.00,NE,45,0.0,-999.0,91,-99.99,,,-99.99,,2013-02-27 09:51:00,
2013-02-27 04:56:00,34.5,32.2,0.00,ENE,67,2.0,-999.0,91,-99.99,,,-99.99,,2013-02-27 09:56:00,
2013-02-27 05:01:00,34.7,32.4,0.00,SSE,157,2.0,-999.0,91,-99.99,,,-99.99,,2013-02-27 10:01:00,
2013-02-27 05:06:00,34.9,32.8,0.00,SSE,157,1.3,-999.0,92,-99.99,,,-99.99,,2013-02-27 10:06:00,
2013-02-27 05:11:00,34.9,32.8,0.00,SE,135,0.0,-999.0,92,-99.99,,,-99.99,,2013-02-27 10:11:00,
2013-02-27 05:16:00,34.9,32.8,0.00,ESE,112,1.3,-999.0,92,-99.99,,,-99.99,,2013-02-27 10:16:00,
2013-02-27 05:21:00,34.9,32.8,0.00,SSE,157,1.6,-999.0,92,-99.99,,,-99.99,,2013-02-27 10:21:00,
2013-02-27 05:26:00,35.1,33.0,0.00,South,180,1.1,-999.0,92,-99.99,,,-99.99,,2013-02-27 10:26:00,
2013-02-27 05:31:00,35.1,33.0,0.00,SSE,157,2.9,-999.0,92,-99.99,,,-99.99,,2013-02-27 10:31:00,
2013-02-27 05:36:00,35.2,33.4,0.00,SE,135,0.0,-999.0,93,-99.99,,,-99.99,,2013-02-27 10:36:00,
2013-02-27 05:42:00,35.1,33.3,0.00,ENE,67,0.0,-999.0,93,-99.99,,,-99.99,,2013-02-27 10:42:00,
2013-02-27 05:47:00,35.1,33.3,0.00,ESE,112,0.0,-999.0,93,-99.99,,,-99.99,,2013-02-27 10:47:00,
2013-02-27 05:52:00,35.2,33.4,0.00,ENE,67,0.0,-999.0,93,-99.99,,,-99.99,,2013-02-27 10:52:00,
2013-02-27 05:57:00,35.2,33.4,0.00,SSE,157,2.2,-999.0,93,-99.99,,,-99.99,,2013-02-27 10:57:00,
2013-02-27 06:02:00,35.4,33.6,0.00,ESE,112,2.0,-999.0,93,-99.99,,,-99.99,,2013-02-27 11:02:00,
2013-02-27 06:07:00,35.6,33.8,0.00,SSE,157,1.6,-999.0,93,-99.99,,,-99.99,,2013-02-27 11:07:00,
2013-02-27 06:13:00,35.6,33.8,0.00,NE,45,3.1,-999.0,93,-99.99,,,-99.99,,2013-02-27 11:13:00,
2013-02-27 06:18:00,35.6,33.8,0.00,SE,135,2.7,-999.0,93,-99.99,,,-99.99,,2013-02-27 11:18:00,
2013-02-27 06:23:00,35.6,34.1,0.00,ENE,67,1.1,-999.0,94,-99.99,,,-99.99,,2013-02-27 11:23:00,
2013-02-27 06:28:00,35.8,34.3,0.00,SSE,157,2.7,-999.0,94,-99.99,,,-99.99,,2013-02-27 11:28:00,
2013-02-27 06:33:00,35.8,34.3,0.00,SSW,202,2.0,-999.0,94,-99.99,,,-99.99,,2013-02-27 11:33:00,
2013-02-27 06:38:00,35.8,34.5,0.00,SSE,157,1.6,-999.0,95,-99.99,,,-99.99,,2013-02-27 11:38:00,
2013-02-27 06:43:00,36.0,34.7,0.00,SE,135,0.0,-999.0,95,-99.99,,,-99.99,,2013-02-27 11:43:00,
2013-02-27 06:48:00,36.0,34.7,0.00,ENE,67,1.1,-999.0,95,-99.99,,,-99.99,,2013-02-27 11:48:00,
2013-02-27 06:53:00,36.0,34.7,0.00,ESE,112,0.0,-999.0,95,-99.99,,,-99.99,,2013-02-27 11:53:00,
2013-02-27 06:58:00,36.0,34.7,0.00,ESE,112,2.9,-999.0,95,-99.99,,,-99.99,,2013-02-27 11:58:00,
2013-02-27 07:03:00,36.1,34.8,0.00,SSW,202,3.4,-999.0,95,-99.99,,,-99.99,,2013-02-27 12:03:00,
2013-02-27 07:08:00,36.3,35.3,0.00,South,180,3.1,-999.0,96,-99.99,,,-99.99,,2013-02-27 12:08:00,
2013-02-27 07:14:00,37.0,36.5,0.00,SE,135,5.4,-999.0,98,-99.99,,,-99.99,,2013-02-27 12:14:00,
2013-02-27 07:19:00,37.0,36.5,0.00,SSE,157,1.1,-999.0,98,-99.99,,,-99.99,,2013-02-27 12:19:00,
2013-02-27 07:24:00,37.6,37.1,0.00,ENE,67,1.6,-999.0,98,-99.99,,,-99.99,,2013-02-27 12:24:00,
2013-02-27 07:29:00,37.6,37.1,0.00,ESE,112,0.0,-999.0,98,-99.99,,,-99.99,,2013-02-27 12:29:00,
2013-02-27 07:34:00,37.6,37.1,0.00,ENE,67,2.0,-999.0,98,-99.99,,,-99.99,,2013-02-27 12:34:00,
2013-02-27 07:39:00,37.6,37.1,0.00,ESE,112,3.1,-999.0,98,-99.99,,,-99.99,,2013-02-27 12:39:00,
2013-02-27 07:45:00,37.8,37.3,0.00,SSE,157,3.1,-999.0,98,-99.99,,,-99.99,,2013-02-27 12:45:00,
2013-02-27 07:50:00,37.9,37.4,0.00,SSW,202,3.4,-999.0,98,-99.99,,,-99.99,,2013-02-27 12:50:00,
2013-02-27 07:55:00,38.1,37.6,0.00,ESE,112,2.5,-999.0,98,-99.99,,,-99.99,,2013-02-27 12:55:00,
2013-02-27 08:00:00,38.3,37.8,0.00,SSE,157,1.3,-999.0,98,-99.99,,,-99.99,,2013-02-27 13:00:00,
2013-02-27 08:05:00,38.7,38.2,0.00,ESE,112,3.8,-999.0,98,-99.99,,,-99.99,,2013-02-27 13:05:00,
2013-02-27 08:10:00,39.0,38.5,0.00,SSE,157,2.7,-999.0,98,-99.99,,,-99.99,,2013-02-27 13:10:00,
2013-02-27 08:15:00,39.2,38.7,0.00,SE,135,4.0,-999.0,98,-99.99,,,-99.99,,2013-02-27 13:15:00,
2013-02-27 08:20:00,39.2,38.7,0.00,SSW,202,2.0,-999.0,98,-99.99,,,-99.99,,2013-02-27 13:20:00,
2013-02-27 08:25:00,39.4,38.9,0.00,SSE,157,1.6,-999.0,98,-99.99,,,-99.99,,2013-02-27 13:25:00,
2013-02-27 08:30:00,39.6,39.1,0.00,SE,135,2.7,-999.0,98,-99.99,,,-99.99,,2013-02-27 13:30:00,
2013-02-27 08:35:00,39.6,39.1,0.00,NNE,22,2.5,-999.0,98,-99.99,,,-99.99,,2013-02-27 13:35:00,
2013-02-27 08:40:00,39.7,39.2,0.00,SSE,157,2.7,-999.0,98,-99.99,,,-99.99,,2013-02-27 13:40:00,
2013-02-27 08:45:00,39.9,39.4,0.00,South,180,6.5,-999.0,98,-99.99,,,-99.99,,2013-02-27 13:45:00,
2013-02-27 08:50:00,40.3,39.8,0.00,SSE,157,2.2,-999.0,98,-99.99,,,-99.99,,2013-02-27 13:50:00,
2013-02-27 08:55:00,40.8,40.3,0.00,ESE,112,3.1,-999.0,98,-99.99,,,-99.99,,2013-02-27 13:55:00,
2013-02-27 09:00:00,41.0,40.5,0.00,ESE,112,7.8,-999.0,98,-99.99,,,-99.99,,2013-02-27 14:00:00,
2013-02-27 09:05:00,41.2,40.7,0.00,SSE,157,4.3,-999.0,98,-99.99,,,-99.99,,2013-02-27 14:05:00,
2013-02-27 09:10:00,41.5,40.8,0.00,NW,315,4.0,-999.0,97,-99.99,,,-99.99,,2013-02-27 14:10:00,
2013-02-27 09:15:00,41.7,40.7,0.00,SE,135,2.5,-999.0,96,-99.99,,,-99.99,,2013-02-27 14:15:00,
2013-02-27 09:20:00,42.1,40.6,0.00,SSW,202,3.8,-999.0,94,-99.99,,,-99.99,,2013-02-27 14:20:00,
2013-02-27 09:25:00,42.3,40.2,0.00,SE,135,3.1,-999.0,92,-99.99,,,-99.99,,2013-02-27 14:25:00,
2013-02-27 09:31:00,42.3,40.2,0.00,South,180,2.9,-999.0,92,-99.99,,,-99.99,,2013-02-27 14:31:00,
2013-02-27 09:36:00,42.6,40.5,0.00,SSE,157,4.7,-999.0,92,-99.99,,,-99.99,,2013-02-27 14:36:00,
2013-02-27 09:41:00,43.2,39.7,0.00,SSW,202,4.9,-999.0,87,-99.99,,,-99.99,,2013-02-27 14:41:00,
2013-02-27 09:47:00,43.5,39.7,0.00,ESE,112,6.3,-999.0,86,-99.99,,,-99.99,,2013-02-27 14:47:00,
2013-02-27 09:52:00,43.7,39.2,0.00,SSE,157,2.7,-999.0,84,-99.99,,,-99.99,,2013-02-27 14:52:00,
2013-02-27 09:57:00,43.9,39.4,0.00,SSE,157,3.1,-999.0,84,-99.99,,,-99.99,,2013-02-27 14:57:00,
2013-02-27 10:03:00,43.7,39.2,0.00,ESE,112,2.7,-999.0,84,-99.99,,,-99.99,,2013-02-27 15:03:00,
2013-02-27 10:08:00,43.9,38.8,0.00,SSE,157,3.6,-999.0,82,-99.99,,,-99.99,,2013-02-27 15:08:00,
2013-02-27 10:13:00,44.1,39.0,0.00,SW,225,3.4,-999.0,82,-99.99,,,-99.99,,2013-02-27 15:13:00,
2013-02-27 10:18:00,44.1,39.0,0.00,SE,135,7.4,-999.0,82,-99.99,,,-99.99,,2013-02-27 15:18:00,
2013-02-27 10:23:00,44.1,38.7,0.00,SSE,157,3.8,-999.0,81,-99.99,,,-99.99,,2013-02-27 15:23:00,
2013-02-27 10:28:00,44.2,38.8,0.00,NNE,22,3.8,-999.0,81,-99.99,,,-99.99,,2013-02-27 15:28:00,
2013-02-27 10:34:00,44.6,38.6,0.00,SSE,157,3.1,-999.0,79,-99.99,,,-99.99,,2013-02-27 15:34:00,
2013-02-27 10:39:00,44.4,38.4,0.00,NNE,22,2.5,-999.0,79,-99.99,,,-99.99,,2013-02-27 15:39:00,
2013-02-27 10:44:00,44.2,38.2,0.00,ESE,112,6.5,-999.0,79,-99.99,,,-99.99,,2013-02-27 15:44:00,
2013-02-27 10:50:00,44.2,38.2,0.00,SSE,157,4.9,-999.0,79,-99.99,,,-99.99,,2013-02-27 15:50:00,
2013-02-27 10:55:00,44.2,38.5,0.00,North,0,2.0,-999.0,80,-99.99,,,-99.99,,2013-02-27 15:55:00,
2013-02-27 11:00:00,44.2,38.8,0.00,SSE,157,8.5,-999.0,81,-99.99,,,-99.99,,2013-02-27 16:00:00,
2013-02-27 11:06:00,44.1,39.0,0.00,SE,135,2.5,-999.0,82,-99.99,,,-99.99,,2013-02-27 16:06:00,
2013-02-27 11:11:00,44.1,39.3,0.00,NE,45,4.3,-999.0,83,-99.99,,,-99.99,,2013-02-27 16:11:00,
2013-02-27 11:16:00,44.1,39.3,0.00,ESE,112,3.1,-999.0,83,-99.99,,,-99.99,,2013-02-27 16:16:00,
2013-02-27 11:22:00,44.1,39.3,0.00,ENE,67,1.6,-999.0,83,-99.99,,,-99.99,,2013-02-27 16:22:00,
2013-02-27 11:27:00,43.9,39.4,0.00,WSW,247,3.8,-999.0,84,-99.99,,,-99.99,,2013-02-27 16:27:00,
2013-02-27 11:32:00,43.7,39.2,0.00,NNW,337,2.9,-999.0,84,-99.99,,,-99.99,,2013-02-27 16:32:00,
2013-02-27 11:38:00,43.7,39.6,0.00,SE,135,3.8,-999.0,85,-99.99,,,-99.99,,2013-02-27 16:38:00,
2013-02-27 11:43:00,43.7,39.9,0.00,SE,135,10.1,-999.0,86,-99.99,,,-99.99,,2013-02-27 16:43:00,
2013-02-27 11:48:00,44.1,40.2,0.00,ESE,112,2.9,-999.0,86,-99.99,,,-99.99,,2013-02-27 16:48:00,
2013-02-27 11:53:00,44.1,40.2,0.00,SSE,157,4.0,-999.0,86,-99.99,,,-99.99,,2013-02-27 16:53:00,
2013-02-27 11:58:00,44.1,40.2,0.00,NNE,22,0.0,-999.0,86,-99.99,,,-99.99,,2013-02-27 16:58:00,
2013-02-27 12:03:00,44.1,40.2,0.00,NNE,22,3.8,-999.0,86,-99.99,,,-99.99,,2013-02-27 17:03:00,
2013-02-27 12:09:00,44.2,40.6,0.00,SW,225,3.6,-999.0,87,-99.99,,,-99.99,,2013-02-27 17:09:00,
2013-02-27 12:14:00,44.4,40.8,0.00,ESE,112,1.6,-999.0,87,-99.99,,,-99.99,,2013-02-27 17:14:00,
2013-02-27 12:19:00,44.4,40.5,0.00,SSE,157,7.4,-999.0,86,-99.99,,,-99.99,,2013-02-27 17:19:00,
2013-02-27 12:24:00,44.4,40.2,0.00,West,270,2.5,-999.0,85,-99.99,,,-99.99,,2013-02-27 17:24:00,
2013-02-27 12:29:00,44.6,40.4,0.00,SW,225,3.1,-999.0,85,-99.99,,,-99.99,,2013-02-27 17:29:00,
2013-02-27 12:34:00,44.6,40.1,0.00,SSE,157,3.4,-999.0,84,-99.99,,,-99.99,,2013-02-27 17:34:00,
2013-02-27 12:40:00,44.2,40.0,0.00,SSE,157,2.2,-999.0,85,-99.99,,,-99.99,,2013-02-27 17:40:00,
2013-02-27 12:45:00,44.1,40.2,0.00,SSW,202,8.5,-999.0,86,-99.99,,,-99.99,,2013-02-27 17:45:00,
2013-02-27 12:50:00,44.4,40.8,0.00,SSE,157,3.1,-999.0,87,-99.99,,,-99.99,,2013-02-27 17:50:00,
2013-02-27 12:55:00,44.6,41.0,0.00,SSE,157,3.6,-999.0,87,-99.99,,,-99.99,,2013-02-27 17:55:00,
2013-02-27 13:00:00,44.8,40.9,0.00,SSE,157,6.0,-999.0,86,-99.99,,,-99.99,,2013-02-27 18:00:00,
2013-02-27 13:06:00,45.1,40.9,0.00,ESE,112,2.9,-999.0,85,-99.99,,,-99.99,,2013-02-27 18:06:00,
2013-02-27 13:11:00,45.1,40.3,0.00,SSW,202,2.9,-999.0,83,-99.99,,,-99.99,,2013-02-27 18:11:00,
2013-02-27 13:16:00,45.3,40.2,0.00,SSW,202,8.5,-999.0,82,-99.99,,,-99.99,,2013-02-27 18:16:00,
2013-02-27 13:21:00,45.3,40.2,0.00,SE,135,1.3,-999.0,82,-99.99,,,-99.99,,2013-02-27 18:21:00,
2013-02-27 13:26:00,45.3,39.9,0.00,ESE,112,4.0,-999.0,81,-99.99,,,-99.99,,2013-02-27 18:26:00,
2013-02-27 13:31:00,45.3,39.9,0.00,SSE,157,4.9,-999.0,81,-99.99,,,-99.99,,2013-02-27 18:31:00,
2013-02-27 13:36:00,45.3,39.9,0.00,SE,135,3.8,-999.0,81,-99.99,,,-99.99,,2013-02-27 18:36:00,
2013-02-27 13:42:00,45.1,39.7,0.00,SSW,202,3.8,-999.0,81,-99.99,,,-99.99,,2013-02-27 18:42:00,
2013-02-27 13:47:00,45.1,39.7,0.00,SSW,202,4.3,-999.0,81,-99.99,,,-99.99,,2013-02-27 18:47:00,
2013-02-27 13:52:00,45.1,39.7,0.00,SSW,202,4.0,-999.0,81,-99.99,,,-99.99,,2013-02-27 18:52:00,
2013-02-27 13:58:00,45.1,39.7,0.00,WNW,292,4.9,-999.0,81,-99.99,,,-99.99,,2013-02-27 18:58:00,
2013-02-27 14:03:00,45.1,39.7,0.00,WSW,247,2.2,-999.0,81,-99.99,,,-99.99,,2013-02-27 19:03:00,
2013-02-27 14:08:00,45.0,39.6,0.00,SSW,202,1.1,-999.0,81,-99.99,,,-99.99,,2013-02-27 19:08:00,
2013-02-27 14:13:00,44.8,39.4,0.00,NNE,22,2.7,-999.0,81,-99.99,,,-99.99,,2013-02-27 19:13:00,
2013-02-27 14:18:00,44.6,39.2,0.00,NNE,22,2.7,-999.0,81,-99.99,,,-99.99,,2013-02-27 19:18:00,
2013-02-27 14:23:00,44.4,39.3,0.00,WSW,247,3.1,-999.0,82,-99.99,,,-99.99,,2013-02-27 19:23:00,
2013-02-27 14:28:00,44.4,39.3,0.00,NNE,22,2.0,-999.0,82,-99.99,,,-99.99,,2013-02-27 19:28:00,
2013-02-27 14:33:00,44.2,39.4,0.00,SW,225,2.7,-999.0,83,-99.99,,,-99.99,,2013-02-27 19:33:00,
2013-02-27 14:38:00,44.2,39.4,0.00,ESE,112,3.1,-999.0,83,-99.99,,,-99.99,,2013-02-27 19:38:00,
2013-02-27 14:43:00,44.1,39.3,0.00,SW,225,3.6,-999.0,83,-99.99,,,-99.99,,2013-02-27 19:43:00,
2013-02-27 14:48:00,44.1,39.3,0.00,SSW,202,1.3,-999.0,83,-99.99,,,-99.99,,2013-02-27 19:48:00,
2013-02-27 14:53:00,43.9,39.1,0.00,SSE,157,2.9,-999.0,83,-99.99,,,-99.99,,2013-02-27 19:53:00,
2013-02-27 14:58:00,43.7,39.2,0.00,NNE,22,2.0,-999.0,84,-99.99,,,-99.99,,2013-02-27 19:58:00,
2013-02-27 15:03:00,43.7,39.6,0.00,SE,135,3.6,-999.0,85,-99.99,,,-99.99,,2013-02-27 20:03:00,
2013-02-27 15:08:00,43.5,39.4,0.00,SSW,202,3.8,-999.0,85,-99.99,,,-99.99,,2013-02-27 20:08:00,
2013-02-27 15:14:00,43.5,39.7,0.00,SE,135,2.0,-999.0,86,-99.99,,,-99.99,,2013-02-27 20:14:00,
2013-02-27 15:19:00,43.3,39.5,0.00,SE,135,2.5,-999.0,86,-99.99,,,-99.99,,2013-02-27 20:19:00,
2013-02-27 15:24:00,43.3,39.8,0.00,SSE,157,3.1,-999.0,87,-99.99,,,-99.99,,2013-02-27 20:24:00,
2013-02-27 15:29:00,43.0,39.5,0.00,NNW,337,2.7,-999.0,87,-99.99,,,-99.99,,2013-02-27 20:29:00,
2013-02-27 15:34:00,43.0,39.7,0.00,SE,135,4.0,-999.0,88,-99.99,,,-99.99,,2013-02-27 20:34:00,
2013-02-27 15:39:00,43.0,39.7,0.00,SSW,202,0.0,-999.0,88,-99.99,,,-99.99,,2013-02-27 20:39:00,
2013-02-27 15:45:00,43.2,39.9,0.00,NNW,337,1.6,-999.0,88,-99.99,,,-99.99,,2013-02-27 20:45:00,
2013-02-27 15:50:00,43.3,40.3,0.00,SSW,202,3.1,-999.0,89,-99.99,,,-99.99,,2013-02-27 20:50:00,
2013-02-27 15:55:00,43.3,40.3,0.00,SSW,202,1.6,-999.0,89,-99.99,,,-99.99,,2013-02-27 20:55:00,
2013-02-27 16:01:00,43.2,39.9,0.00,WSW,247,4.9,-999.0,88,-99.99,,,-99.99,,2013-02-27 21:01:00,
2013-02-27 16:06:00,43.2,39.9,0.00,NW,315,2.0,-999.0,88,-99.99,,,-99.99,,2013-02-27 21:06:00,
2013-02-27 16:11:00,43.3,40.0,0.00,West,270,2.0,-999.0,88,-99.99,,,-99.99,,2013-02-27 21:11:00,
2013-02-27 16:17:00,43.5,40.2,0.00,SSE,157,2.5,-999.0,88,-99.99,,,-99.99,,2013-02-27 21:17:00,
2013-02-27 16:22:00,43.5,40.0,0.00,NNE,22,0.0,-999.0,87,-99.99,,,-99.99,,2013-02-27 21:22:00,
2013-02-27 16:27:00,43.3,39.8,0.00,West,270,0.9,-999.0,87,-99.99,,,-99.99,,2013-02-27 21:27:00,
2013-02-27 16:32:00,43.3,39.5,0.00,WNW,292,2.5,-999.0,86,-99.99,,,-99.99,,2013-02-27 21:32:00,
2013-02-27 16:37:00,43.3,39.5,0.00,NW,315,3.6,-999.0,86,-99.99,,,-99.99,,2013-02-27 21:37:00,
2013-02-27 16:42:00,43.2,39.4,0.00,SSW,202,1.3,-999.0,86,-99.99,,,-99.99,,2013-02-27 21:42:00,
2013-02-27 16:48:00,43.3,39.5,0.00,WNW,292,2.5,-999.0,86,-99.99,,,-99.99,,2013-02-27 21:48:00,
2013-02-27 16:53:00,43.2,39.4,0.00,SE,135,0.0,-999.0,86,-99.99,,,-99.99,,2013-02-27 21:53:00,
2013-02-27 16:58:00,43.0,39.2,0.00,NNW,337,0.0,-999.0,86,-99.99,,,-99.99,,2013-02-27 21:58:00,
2013-02-27 17:04:00,42.8,39.3,0.00,SW,225,0.9,-999.0,87,-99.99,,,-99.99,,2013-02-27 22:04:00,
2013-02-27 17:09:00,42.6,39.1,0.00,SSW,202,0.0,-999.0,87,-99.99,,,-99.99,,2013-02-27 22:09:00,
2013-02-27 17:14:00,42.4,39.2,0.00,SSE,157,0.0,-999.0,88,-99.99,,,-99.99,,2013-02-27 22:14:00,
2013-02-27 17:19:00,42.3,39.1,0.00,SSE,157,2.0,-999.0,88,-99.99,,,-99.99,,2013-02-27 22:19:00,
2013-02-27 17:24:00,42.3,39.1,0.00,WNW,292,0.0,-999.0,88,-99.99,,,-99.99,,2013-02-27 22:24:00,
2013-02-27 17:29:00,42.1,39.1,0.00,North,0,0.9,-999.0,89,-99.99,,,-99.99,,2013-02-27 22:29:00,
2013-02-27 17:35:00,42.1,39.4,0.00,NW,315,0.0,-999.0,90,-99.99,,,-99.99,,2013-02-27 22:35:00,
2013-02-27 17:40:00,42.1,39.4,0.00,North,0,1.1,-999.0,90,-99.99,,,-99.99,,2013-02-27 22:40:00,
2013-02-27 17:45:00,41.9,39.2,0.00,WNW,292,0.0,-999.0,90,-99.99,,,-99.99,,2013-02-27 22:45:00,
2013-02-27 17:51:00,41.9,39.5,0.00,NNW,337,0.0,-999.0,91,-99.99,,,-99.99,,2013-02-27 22:51:00,
2013-02-27 17:56:00,41.7,39.6,0.00,NNE,22,0.0,-999.0,92,-99.99,,,-99.99,,2013-02-27 22:56:00,
2013-02-27 18:01:00,41.7,39.3,0.00,WNW,292,0.9,-999.0,91,-99.99,,,-99.99,,2013-02-27 23:01:00,
2013-02-27 18:06:00,41.5,39.4,0.00,NNE,22,0.0,-999.0,92,-99.99,,,-99.99,,2013-02-27 23:06:00,
2013-02-27 18:11:00,41.7,39.6,0.00,NNE,22,0.0,-999.0,92,-99.99,,,-99.99,,2013-02-27 23:11:00,
2013-02-27 18:16:00,41.5,39.4,0.00,NNE,22,0.9,-999.0,92,-99.99,,,-99.99,,2013-02-27 23:16:00,
2013-02-27 18:21:00,41.5,39.4,0.00,SSE,157,1.3,-999.0,92,-99.99,,,-99.99,,2013-02-27 23:21:00,
2013-02-27 18:26:00,41.5,39.4,0.00,SSW,202,0.0,-999.0,92,-99.99,,,-99.99,,2013-02-27 23:26:00,
2013-02-27 18:31:00,41.4,39.6,0.00,South,180,0.0,-999.0,93,-99.99,,,-99.99,,2013-02-27 23:31:00,
2013-02-27 18:36:00,41.5,39.7,0.00,WSW,247,0.0,-999.0,93,-99.99,,,-99.99,,2013-02-27 23:36:00,
2013-02-27 18:41:00,41.5,40.0,0.00,NE,45,0.0,-999.0,94,-99.99,,,-99.99,,2013-02-27 23:41:00,
2013-02-27 18:46:00,41.4,39.9,0.00,NE,45,0.0,-999.0,94,-99.99,,,-99.99,,2013-02-27 23:46:00,
2013-02-27 18:51:00,41.2,39.7,0.00,NE,45,0.0,-999.0,94,-99.99,,,-99.99,,2013-02-27 23:51:00,
2013-02-27 18:56:00,41.2,39.7,0.00,NE,45,0.0,-999.0,94,-99.99,,,-99.99,,2013-02-27 23:56:00,
2013-02-27 19:01:00,41.2,39.7,0.00,WNW,292,1.3,-999.0,94,-99.99,,,-99.99,,2013-02-28 00:01:00,
2013-02-27 19:06:00,41.2,39.7,0.00,WNW,292,0.0,-999.0,94,-99.99,,,-99.99,,2013-02-28 00:06:00,
2013-02-27 19:11:00,41.0,39.5,0.00,NNE,22,0.0,-999.0,94,-99.99,,,-99.99,,2013-02-28 00:11:00,
2013-02-27 19:16:00,41.0,39.7,0.00,NNE,22,0.0,-999.0,95,-99.99,,,-99.99,,2013-02-28 00:16:00,
2013-02-27 19:21:00,41.0,39.7,0.00,NNE,22,0.0,-999.0,95,-99.99,,,-99.99,,2013-02-28 00:21:00,
2013-02-27 19:26:00,41.2,39.9,0.00,WNW,292,1.6,-999.0,95,-99.99,,,-99.99,,2013-02-28 00:26:00,
2013-02-27 19:31:00,41.2,39.9,0.00,NNE,22,1.1,-999.0,95,-99.99,,,-99.99,,2013-02-28 00:31:00,
2013-02-27 19:37:00,41.2,39.9,0.00,NNE,22,2.7,-999.0,95,-99.99,,,-99.99,,2013-02-28 00:37:00,
2013-02-27 19:42:00,41.0,39.7,0.00,NNW,337,3.1,-999.0,95,-99.99,,,-99.99,,2013-02-28 00:42:00,
2013-02-27 19:47:00,41.2,39.9,0.00,NNE,22,0.0,-999.0,95,-99.99,,,-99.99,,2013-02-28 00:47:00,
2013-02-27 19:52:00,41.0,39.7,0.00,NNE,22,0.0,-999.0,95,-99.99,,,-99.99,,2013-02-28 00:52:00,
2013-02-27 19:57:00,40.8,39.8,0.00,NNE,22,0.0,-999.0,96,-99.99,,,-99.99,,2013-02-28 00:57:00,
2013-02-27 20:02:00,40.6,39.6,0.00,NNE,22,0.0,-999.0,96,-99.99,,,-99.99,,2013-02-28 01:02:00,
2013-02-27 20:07:00,40.6,39.6,0.00,WSW,247,0.0,-999.0,96,-99.99,,,-99.99,,2013-02-28 01:07:00,
2013-02-27 20:12:00,40.6,39.6,0.00,WNW,292,0.0,-999.0,96,-99.99,,,-99.99,,2013-02-28 01:12:00,
2013-02-27 20:17:00,40.6,39.6,0.00,WNW,292,0.0,-999.0,96,-99.99,,,-99.99,,2013-02-28 01:17:00,
2013-02-27 20:22:00,40.6,39.6,0.00,NNW,337,0.0,-999.0,96,-99.99,,,-99.99,,2013-02-28 01:22:00,
2013-02-27 20:27:00,40.5,39.8,0.00,NE,45,1.3,-999.0,97,-99.99,,,-99.99,,2013-02-28 01:27:00,
2013-02-27 20:32:00,40.5,39.5,0.00,NNW,337,0.9,-999.0,96,-99.99,,,-99.99,,2013-02-28 01:32:00,
2013-02-27 20:38:00,40.3,39.3,0.00,West,270,0.0,-999.0,96,-99.99,,,-99.99,,2013-02-28 01:38:00,
2013-02-27 20:43:00,40.3,39.3,0.00,WNW,292,0.0,-999.0,96,-99.99,,,-99.99,,2013-02-28 01:43:00,
2013-02-27 20:48:00,40.1,39.1,0.00,West,270,1.3,-999.0,96,-99.99,,,-99.99,,2013-02-28 01:48:00,
2013-02-27 20:53:00,39.9,38.9,0.00,NW,315,0.0,-999.0,96,-99.99,,,-99.99,,2013-02-28 01:53:00,
2013-02-27 20:58:00,39.7,38.7,0.00,WNW,292,1.3,-999.0,96,-99.99,,,-99.99,,2013-02-28 01:58:00,
2013-02-27 21:03:00,39.7,38.7,0.00,North,0,0.9,-999.0,96,-99.99,,,-99.99,,2013-02-28 02:03:00,
2013-02-27 21:08:00,39.4,38.4,0.00,SSW,202,0.0,-999.0,96,-99.99,,,-99.99,,2013-02-28 02:08:00,
2013-02-27 21:13:00,39.2,38.2,0.00,WNW,292,0.0,-999.0,96,-99.99,,,-99.99,,2013-02-28 02:13:00,
2013-02-27 21:18:00,38.8,37.8,0.00,WSW,247,0.0,-999.0,96,-99.99,,,-99.99,,2013-02-28 02:18:00,
2013-02-27 21:23:00,38.5,37.5,0.00,WNW,292,0.0,-999.0,96,-99.99,,,-99.99,,2013-02-28 02:23:00,
2013-02-27 21:28:00,38.1,36.8,0.00,NNW,337,1.3,-999.0,95,-99.99,,,-99.99,,2013-02-28 02:28:00,
2013-02-27 21:33:00,37.9,36.6,0.00,NW,315,0.9,-999.0,95,-99.99,,,-99.99,,2013-02-28 02:33:00,
2013-02-27 21:38:00,37.8,36.5,0.00,WNW,292,1.3,-999.0,95,-99.99,,,-99.99,,2013-02-28 02:38:00,
2013-02-27 21:43:00,37.6,36.6,0.00,WNW,292,0.0,-999.0,96,-99.99,,,-99.99,,2013-02-28 02:43:00,
2013-02-27 21:48:00,37.6,36.6,0.00,WSW,247,3.1,-999.0,96,-99.99,,,-99.99,,2013-02-28 02:48:00,
2013-02-27 21:53:00,37.4,36.4,0.00,WNW,292,1.3,-999.0,96,-99.99,,,-99.99,,2013-02-28 02:53:00,
2013-02-27 21:58:00,37.2,36.2,0.00,NW,315,0.0,-999.0,96,-99.99,,,-99.99,,2013-02-28 02:58:00,
2013-02-27 22:03:00,37.0,36.0,0.00,NW,315,0.0,-999.0,96,-99.99,,,-99.99,,2013-02-28 03:03:00,
2013-02-27 22:08:00,36.9,35.9,0.00,SSE,157,0.0,-999.0,96,-99.99,,,-99.99,,2013-02-28 03:08:00,
2013-02-27 22:14:00,36.9,35.9,0.00,WSW,247,0.0,-999.0,96,-99.99,,,-99.99,,2013-02-28 03:14:00,
2013-02-27 22:19:00,36.7,35.7,0.00,WNW,292,0.0,-999.0,96,-99.99,,,-99.99,,2013-02-28 03:19:00,
2013-02-27 22:24:00,36.7,35.7,0.00,West,270,0.0,-999.0,96,-99.99,,,-99.99,,2013-02-28 03:24:00,
2013-02-27 22:29:00,36.7,36.0,0.00,South,180,0.0,-999.0,97,-99.99,,,-99.99,,2013-02-28 03:29:00,
2013-02-27 22:34:00,36.5,35.8,0.00,WSW,247,0.0,-999.0,97,-99.99,,,-99.99,,2013-02-28 03:34:00,
2013-02-27 22:39:00,36.3,35.3,0.00,SSW,202,1.6,-999.0,96,-99.99,,,-99.99,,2013-02-28 03:39:00,
2013-02-27 22:45:00,36.1,35.4,0.00,ESE,112,0.0,-999.0,97,-99.99,,,-99.99,,2013-02-28 03:45:00,
2013-02-27 22:50:00,36.1,35.4,0.00,West,270,1.1,-999.0,97,-99.99,,,-99.99,,2013-02-28 03:50:00,
2013-02-27 22:55:00,36.3,35.6,0.00,West,270,1.3,-999.0,97,-99.99,,,-99.99,,2013-02-28 03:55:00,
2013-02-27 23:00:00,36.3,35.6,0.00,WNW,292,2.5,-999.0,97,-99.99,,,-99.99,,2013-02-28 04:00:00,
2013-02-27 23:05:00,36.7,36.2,0.00,North,0,1.3,-999.0,98,-99.99,,,-99.99,,2013-02-28 04:05:00,
2013-02-27 23:10:00,36.9,36.4,0.00,SW,225,2.5,-999.0,98,-99.99,,,-99.99,,2013-02-28 04:10:00,
2013-02-27 23:15:00,36.7,36.2,0.00,SSE,157,0.0,-999.0,98,-99.99,,,-99.99,,2013-02-28 04:15:00,
2013-02-27 23:20:00,36.5,36.0,0.00,SSW,202,0.0,-999.0,98,-99.99,,,-99.99,,2013-02-28 04:20:00,
2013-02-27 23:25:00,36.3,35.6,0.00,WNW,292,2.2,-999.0,97,-99.99,,,-99.99,,2013-02-28 04:25:00,
2013-02-27 23:30:00,36.7,36.2,0.00,WNW,292,2.2,-999.0,98,-99.99,,,-99.99,,2013-02-28 04:30:00,
2013-02-27 23:35:00,36.7,36.2,0.00,WNW,292,2.0,-999.0,98,-99.99,,,-99.99,,2013-02-28 04:35:00,
2013-02-27 23:40:00,36.9,36.4,0.00,WNW,292,2.0,-999.0,98,-99.99,,,-99.99,,2013-02-28 04:40:00,
2013-02-27 23:46:00,37.0,36.5,0.00,West,270,2.5,-999.0,98,-99.99,,,-99.99,,2013-02-28 04:46:00,
2013-02-27 23:51:00,37.2,36.7,0.00,West,270,1.3,-999.0,98,-99.99,,,-99.99,,2013-02-28 04:51:00,
2013-02-27 23:56:00,37.4,36.9,0.00,West,270,1.3,-999.0,98,-99.99,,,-99.99,,2013-02-28 04:56:00,